Temp_Advection
nan nan nan nan nan nan nan nan nan nan nan nan nan nan nan nan nan nan nan nan nan nan nan nan nan nan nan nan nan nan nan nan nan nan nan nan nan nan nan nan nan nan nan nan nan
nan -0 0 0 -0 -0 -0 -0 0 0 -0 -0 0 0 -0 0 -0 -0 0 -0 0 -0 0 0 -0 -0 -0 -0 -0 -0 -0 -0 0 -0 -0 0 0 -0 -0 -1 -0 -0 -0 0 nan
nan -0 -0 -0 -0 -0 -0 -0 -0 -0 -0 -0 -0 -0 -0 -0 -0 0 0 -0 -0 -0 -0 0 0 -0 -0 -0 0 0 -0 -0 -0 -0 -0 -0 0 -0 -0 -0 -0 -0 -1 -0 nan
nan -0 -0 -0 -0 -0 -0 -0 -0 -0 -0 -0 -0 -0 -0 0 0 -0 -0 -0 0 -0 -0 0 -0 -0 -0 -0 0 -0 -0 -0 -0 0 -0 -0 0 0 0 0 -0 -0 -0 -1 nan
nan -0 -0 -0 -0 -0 -0 -0 -0 -0 -0 -0 -0 -0 -0 -0 -0 -0 -0 -0 0 0 0 0 -0 0 0 0 -0 -0 -0 -0 -0 0 0 -0 -0 0 0 0 0 0 -0 -1 nan
nan -0 -0 -0 -0 -0 -0 -0 -0 -0 -0 -0 -0 -0 -0 -0 0 0 0 -0 -0 0 0 0 0 0 0 -0 -0 -0 -0 -0 0 0 0 -0 0 0 -0 -0 0 0 -0 -0 nan
nan -0 -0 -0 -0 -0 -0 -0 -0 -0 -0 -0 -0 -0 -0 -0 0 0 0 -0 -0 0 0 0 0 -0 -0 0 0 -0 -1 -0 -0 0 -0 0 -0 0 -0 -0 -0 -0 0 0 nan
nan -0 -0 -0 -0 -0 -0 -0 -0 -0 -0 -0 -0 -0 -0 0 0 0 0 -0 0 0 0 0 0 -0 -0 -0 -1 -0 -0 -0 -0 0 -0 0 -0 -0 0 -0 -0 -0 0 0 nan
nan -0 -0 -0 -0 -0 -0 -0 -0 -0 -0 -0 -0 -0 -0 0 0 0 0 0 -0 -0 0 0 0 -0 -0 -0 -0 -0 0 0 0 -0 0 0 0 -0 -0 0 -0 -0 -0 0 nan
nan -0 -0 -0 -0 -0 -0 -0 -0 -0 -0 -0 -0 -0 -0 0 0 -0 -0 0 -0 -0 -0 -0 -0 -0 -0 -0 -0 0 0 0 -0 -0 -0 -0 0 -0 0 0 -0 -0 -0 -0 nan
nan -0 -0 -0 -0 -0 -0 -0 -0 -0 -0 -1 -0 0 0 0 -0 -0 -0 -0 -0 -1 -0 -0 -0 -0 -0 -0 -0 -0 -0 -0 -0 -0 -0 -0 -0 0 0 -0 -0 -0 -0 -0 nan
nan -0 -0 -0 -0 -0 -0 -0 -0 -0 -0 0 0 -0 -0 0 -0 -0 -0 -1 -1 -1 0 -0 -0 -0 0 0 -0 -0 -0 -0 0 0 -0 -0 -0 0 -0 0 0 0 -0 -0 nan
nan -0 -0 -0 -0 0 0 0 -0 -0 -1 -0 -0 -0 -0 -1 -0 -0 -0 -0 -0 -0 -0 -0 -0 -0 0 -0 -0 -0 -0 0 -0 -0 -0 -0 -0 0 -0 0 -0 -0 -0 -0 nan
nan -0 -0 -0 0 0 0 -0 -0 -0 -1 -0 -0 0 0 -1 -0 0 -0 -0 -0 -0 0 -0 0 0 0 -0 -0 -0 0 0 -0 -0 -0 0 -0 -0 0 0 -0 -0 0 0 nan
nan -0 -0 -0 0 0 -0 -0 -0 -0 -1 -0 -0 -0 -0 -0 -0 0 -0 -0 -0 0 0 0 0 -0 -0 -0 -0 -0 0 -0 -0 -0 -0 -0 -0 -0 -0 0 -0 0 0 0 nan
nan -0 -0 -0 0 -0 -0 0 -0 -1 -0 0 -0 -1 -1 -0 -0 -1 -0 -0 -0 0 -0 0 -0 -0 -0 -0 0 0 -0 -0 -0 0 0 -0 -0 -0 0 -0 -0 -0 0 0 nan
nan -0 -0 -0 -0 -0 0 -0 -1 -0 0 0 0 -0 -0 -0 -0 -1 -1 -0 -0 -0 -0 -0 -0 -0 0 -0 -0 -0 -0 0 0 0 0 -0 -0 -0 -0 0 0 0 -0 0 nan
nan -0 -0 -0 -0 -0 -0 -1 -0 -0 0 0 0 0 0 0 -0 -0 -0 -1 -1 -0 -0 0 0 -0 -0 -0 -0 -0 0 0 0 -0 0 -0 -0 -0 0 0 0 0 0 -0 nan
nan -0 -0 -0 -0 0 -1 -1 -0 0 -0 0 0 0 0 0 0 -0 -0 -1 -0 0 -0 -0 0 0 0 -0 0 0 -0 -0 0 0 -0 -0 -0 -0 0 0 0 0 -0 0 nan
nan 0 -0 -0 0 -0 -1 -1 0 0 -0 -0 -0 -0 0 0 -0 -0 -0 0 0 -0 -0 -0 -0 0 -0 0 0 -0 -0 0 0 1 -0 0 -0 -0 -0 -0 -0 -0 -0 -0 nan
nan -0 0 0 -0 -1 -1 0 0 -0 -0 -0 0 0 0 0 -0 0 0 0 0 0 0 0 0 0 -0 -0 -0 -0 0 -0 -0 0 0 -0 -0 -0 0 -0 -0 -1 -0 -0 nan
nan 0 -0 1 -1 -1 0 0 0 -0 -0 0 -0 -0 0 0 0 0 0 -0 0 0 0 0 0 -0 -0 0 -0 0 0 0 0 0 -0 -0 -1 0 0 0 0 -0 -0 -0 nan
nan -0 -0 -0 -0 0 0 0 -0 0 -0 0 0 0 -0 0 0 0 0 -0 0 -0 1 0 0 0 -0 0 -0 -0 -0 0 0 0 -0 -0 -0 0 0 0 -0 0 -0 0 nan
nan 0 -0 -0 -0 -1 0 0 0 0 0 0 0 0 -0 0 0 0 0 -0 0 0 -0 -0 0 -0 -0 0 -0 -0 -0 0 0 -0 -0 -0 -0 -0 0 0 -0 0 -0 0 nan
nan -0 -0 0 0 0 0 0 0 -0 0 0 0 -0 0 0 -0 -0 0 0 -0 -0 -0 -0 -0 -0 -0 -0 -0 -0 0 0 -0 -0 -0 -0 -0 -0 -0 -1 -0 0 -0 -0 nan
nan -0 0 0 0 0 -0 -0 0 0 0 0 0 0 0 -0 -0 1 -0 0 -0 0 0 0 -0 -0 -0 0 0 0 -0 -0 -0 -0 -0 -0 0 -1 -0 -0 -0 0 -0 -1 nan
nan nan nan nan nan nan nan nan nan nan nan nan nan nan nan nan nan nan nan nan nan nan nan nan nan nan nan nan nan nan nan nan nan nan nan nan nan nan nan nan nan nan nan nan nan
Wind_Speed
7 8 8 8 9 10 9 10 10 10 11 11 10 11 10 9 9 5 3 5 2 5 1 5 4 3 1 1 1 2 4 6 5 6 7 6 2 2 1 8 4 5 6 11 18
6 8 8 8 9 9 10 10 10 10 11 11 11 11 11 10 3 7 2 2 3 6 5 6 6 6 4 1 2 6 6 4 5 7 8 6 3 2 6 7 5 6 8 16 20
7 7 8 9 9 9 10 10 11 11 11 11 11 11 11 7 3 3 3 2 6 6 6 6 7 5 3 1 2 1 7 1 3 8 9 8 3 5 6 4 4 9 14 18 20
8 8 8 9 9 10 10 11 10 11 11 11 10 10 9 3 0 2 3 3 5 6 6 7 7 6 4 3 2 4 2 3 5 8 7 7 6 4 8 5 4 7 15 20 20
9 9 9 9 9 10 10 11 11 11 12 11 10 9 7 3 2 0 2 2 4 6 6 6 7 4 4 1 1 3 2 4 8 9 7 5 7 8 6 3 3 9 17 20 18
10 10 10 10 10 10 10 11 12 11 11 10 9 7 6 4 3 3 3 1 3 6 7 5 4 1 1 1 5 2 5 7 5 4 3 6 5 3 4 2 6 12 15 18 17
10 11 11 11 11 10 10 11 11 11 11 10 8 6 7 4 6 5 5 5 5 6 7 5 4 2 1 4 3 4 9 5 1 3 3 7 11 4 2 2 6 10 14 17 16
11 12 12 11 11 11 10 10 11 11 9 8 7 4 5 6 10 8 5 4 5 7 6 3 1 1 4 4 7 6 9 10 7 5 3 9 7 5 1 4 7 10 14 15 15
11 11 12 12 11 10 10 9 10 10 7 5 4 2 3 5 7 8 7 3 6 7 4 5 1 2 4 7 7 6 8 3 1 3 6 4 9 5 1 3 7 10 13 14 14
10 11 11 11 10 8 7 8 9 9 7 6 6 5 5 3 7 9 10 8 5 9 5 5 4 6 5 7 5 2 6 4 5 2 8 5 5 4 3 5 7 10 14 14 13
11 10 10 10 8 6 5 5 5 3 5 6 1 2 4 3 6 8 10 8 8 11 8 7 7 7 1 1 3 2 5 6 4 2 8 3 7 3 4 6 7 10 14 15 14
11 10 9 8 6 4 3 2 1 2 8 9 13 10 6 4 7 12 12 11 12 11 6 7 9 2 3 3 5 6 6 6 1 2 7 7 8 4 6 6 7 10 14 16 17
11 10 8 7 4 5 6 5 2 4 7 5 7 9 10 10 6 16 18 10 11 12 12 10 8 1 10 8 8 9 9 2 6 5 8 7 14 6 7 5 8 11 11 18 19
11 10 7 5 1 3 5 5 3 1 5 9 6 5 9 10 8 12 20 11 6 11 6 8 7 4 9 8 8 8 3 4 6 7 7 1 9 6 3 4 8 10 15 17 19
12 10 7 4 4 3 7 4 2 1 6 6 6 5 9 17 11 14 20 13 9 7 6 5 7 12 11 8 8 3 1 4 6 9 7 9 7 4 4 6 3 2 9 14 16
11 11 6 5 5 8 8 3 2 6 5 6 6 9 11 15 8 12 18 11 6 6 9 9 2 5 8 6 11 4 7 7 6 8 10 3 6 7 3 4 2 1 0 10 15
12 10 7 6 4 7 9 4 6 7 3 7 7 7 11 13 10 15 18 17 10 8 11 12 13 7 8 10 10 9 9 8 7 7 7 3 6 9 5 3 4 5 3 8 14
13 9 7 8 9 9 9 7 7 1 1 3 2 5 10 13 11 12 16 17 19 10 1 8 8 13 13 17 11 13 15 10 6 7 2 4 5 2 2 5 5 4 1 8 13
12 7 5 7 10 12 12 10 4 3 1 2 3 8 7 10 6 12 15 17 15 15 7 6 4 6 5 4 14 8 10 14 11 8 8 8 4 11 6 9 7 1 5 8 11
9 1 3 7 11 12 11 12 2 1 1 4 6 4 8 12 10 13 14 11 12 15 15 2 4 5 6 6 5 8 4 8 9 12 9 5 5 4 1 3 5 5 7 10 10
2 3 4 7 15 12 11 8 5 5 2 2 3 4 2 4 8 16 15 5 8 13 17 9 7 9 6 10 10 7 9 9 7 4 8 6 7 6 1 4 3 7 11 13 13
1 4 3 14 9 8 11 4 3 9 4 2 1 1 1 1 6 8 9 1 4 10 13 13 7 10 11 7 4 5 8 9 9 12 8 8 10 5 2 3 0 10 14 15 12
1 2 1 6 6 9 3 7 6 8 7 5 4 3 1 2 3 3 5 7 2 7 9 10 7 9 9 8 7 11 12 11 9 6 10 9 4 3 2 4 4 11 16 15 15
3 4 5 6 1 6 8 11 9 3 4 4 2 4 4 5 2 3 7 5 2 1 3 8 5 10 9 8 2 14 14 13 14 11 11 10 8 6 3 4 7 12 19 18 16
3 2 3 5 5 4 6 4 12 7 5 7 6 8 7 7 9 6 3 5 6 3 2 7 7 9 9 6 7 10 7 12 15 18 6 7 3 4 6 7 6 11 17 18 17
4 3 2 2 2 6 5 6 10 6 7 9 10 5 7 9 5 7 2 3 3 2 4 4 5 5 10 5 6 9 11 10 14 12 9 11 9 8 4 5 4 10 20 22 18
4 3 3 4 6 7 5 7 6 4 3 3 2 6 8 3 4 7 8 9 8 5 2 4 5 7 12 5 7 10 12 11 14 13 12 13 4 5 4 6 3 6 15 18 19
Wind_Direction
9 359 8 2 1 357 359 353 355 354 349 348 346 346 347 340 331 337 328 225 218 215 183 184 182 178 243 283 343 236 155 120 87 34 30 83 359 180 148 140 155 144 102 129 155
4 352 353 353 352 349 348 344 346 343 341 341 340 341 346 343 40 30 331 235 195 162 142 161 166 169 188 200 245 267 139 63 24 15 356 356 329 173 205 154 153 146 126 143 150
347 349 344 343 342 341 339 337 336 334 337 334 335 337 346 354 113 39 40 100 140 143 157 160 162 183 187 237 30 33 67 64 47 360 337 334 270 229 242 209 187 190 166 161 159
333 337 336 337 335 333 332 328 329 327 329 328 331 335 342 20 29 16 74 97 139 134 141 148 170 192 204 174 43 248 68 343 343 333 318 332 337 267 256 301 68 161 169 167 167
326 328 330 327 328 323 324 321 321 322 321 322 324 330 344 308 77 22 92 88 125 124 149 154 174 195 204 195 200 253 43 298 302 308 295 278 293 299 301 278 202 166 164 170 169
321 322 322 321 321 319 318 314 315 316 314 313 312 319 327 250 212 210 148 118 142 131 140 139 152 106 154 326 288 9 289 288 305 319 265 289 295 270 76 101 166 166 169 170 170
316 316 317 316 313 314 311 309 313 312 310 305 298 303 293 274 205 193 171 172 159 148 145 118 103 236 286 222 304 278 274 220 86 7 32 318 226 210 17 144 150 163 165 166 171
311 311 313 312 310 311 309 308 309 308 308 299 287 289 270 246 203 197 182 192 172 163 138 138 51 254 270 285 240 265 247 262 97 322 76 321 62 67 183 183 152 156 159 165 174
311 310 309 309 310 310 307 304 302 302 292 293 287 231 226 223 195 196 175 180 165 161 137 139 122 255 236 254 248 207 262 202 166 11 332 308 332 80 153 187 158 158 162 174 177
313 309 306 306 308 304 301 302 297 287 272 268 248 242 232 173 191 190 189 158 161 166 164 184 213 239 220 237 263 258 233 192 260 359 322 286 305 67 205 210 191 163 172 184 187
316 309 306 303 302 297 291 311 296 264 233 247 121 303 146 157 161 177 180 166 166 188 196 198 230 215 23 312 314 300 271 272 232 360 310 329 306 306 211 220 197 179 183 193 195
316 311 309 301 292 257 230 265 148 273 288 243 235 242 204 177 171 176 172 191 190 202 181 198 226 60 185 183 234 245 262 241 239 243 290 301 292 275 206 229 218 195 189 202 197
317 315 313 302 281 201 192 194 274 338 254 199 208 218 208 199 198 188 183 199 210 208 207 249 82 306 206 197 223 227 254 273 307 304 250 274 256 212 163 204 213 219 207 205 206
319 316 315 307 184 215 186 211 301 272 255 147 182 182 188 192 222 196 194 192 208 227 206 249 235 193 190 205 229 227 185 247 274 269 277 280 292 189 246 235 210 219 209 208 204
320 312 313 274 243 169 206 218 286 227 238 129 137 162 175 187 127 193 193 201 228 197 202 113 191 206 210 213 213 96 182 284 276 255 290 210 263 256 176 264 51 200 214 209 204
321 309 301 274 244 215 196 212 187 226 209 139 137 177 170 193 173 145 175 209 246 202 230 266 140 216 220 197 204 139 242 231 245 265 251 264 268 280 303 354 7 94 265 200 196
320 302 284 245 206 198 186 178 215 240 141 153 154 180 195 181 172 177 184 190 192 198 211 215 223 199 219 194 194 232 234 240 227 211 256 83 252 275 323 282 292 299 15 183 182
319 297 267 241 213 190 180 212 230 195 174 106 165 195 203 179 186 187 188 203 219 230 217 212 183 199 204 227 223 217 237 260 274 269 218 148 252 261 327 270 275 284 262 163 172
321 304 255 224 204 181 198 213 206 186 92 149 187 198 169 182 231 182 201 206 199 213 236 193 208 156 196 217 222 183 230 248 268 247 273 268 220 261 238 260 252 185 116 153 164
329 254 249 213 188 177 215 232 172 177 243 209 217 279 186 182 199 199 185 206 209 208 233 112 234 170 128 176 196 258 174 203 228 262 261 195 256 289 356 256 150 126 149 146 162
351 208 318 178 162 196 212 209 194 178 238 265 172 189 185 178 238 194 181 129 200 196 217 221 253 147 195 205 175 185 216 239 298 305 292 247 216 118 319 329 342 144 158 152 152
61 211 158 151 193 207 219 223 195 170 194 172 264 304 241 151 185 202 187 93 150 165 199 207 235 242 239 118 276 270 270 225 239 201 237 294 293 140 244 321 156 158 159 160 152
4 101 139 174 211 202 158 185 207 187 189 194 179 256 234 190 200 208 178 117 131 206 177 165 217 221 210 189 198 229 217 230 243 290 272 278 271 122 247 254 155 164 158 159 155
282 181 161 195 349 291 189 196 173 182 158 207 152 220 216 225 186 171 168 153 39 242 302 212 216 251 277 1 164 198 227 215 222 243 240 233 292 294 240 273 154 179 164 164 160
328 77 344 184 155 192 214 187 211 178 207 207 203 237 221 220 219 210 194 198 174 139 185 211 238 225 257 267 254 273 218 205 217 236 266 300 219 299 34 15 339 181 164 164 158
336 312 199 139 210 206 166 200 208 169 211 181 237 195 211 234 255 183 286 220 57 194 213 189 247 241 254 207 235 239 240 232 207 238 263 272 270 52 33 33 34 171 176 175 173
11 342 290 141 192 224 175 165 165 186 159 96 148 220 208 143 311 299 279 276 280 293 280 240 243 230 248 178 231 240 244 237 238 241 251 256 256 27 4 24 42 190 190 190 182
Height
1534 1533 1532 1531 1529 1528 1526 1526 1524 1523 1522 1520 1519 1517 1515 1514 1513 1511 1512 1513 1514 1515 1515 1517 1518 1519 1519 1518 1517 1514 1506 1514 1513 1510 1510 1511 1511 1517 1518 1520 1522 1524 1526 1530 1534
1534 1534 1532 1531 1529 1528 1526 1525 1524 1523 1522 1520 1518 1517 1515 1514 1513 1513 1513 1511 1513 1515 1517 1519 1520 1520 1518 1517 1516 1506 1503 1511 1511 1511 1511 1511 1513 1514 1516 1518 1523 1526 1529 1531 1534
1534 1533 1532 1531 1529 1528 1526 1525 1523 1523 1521 1519 1518 1516 1514 1513 1513 1515 1513 1512 1513 1515 1518 1519 1521 1520 1517 1516 1515 1512 1507 1514 1513 1514 1514 1512 1512 1513 1512 1513 1516 1523 1528 1531 1534
1534 1532 1531 1530 1530 1528 1526 1525 1523 1522 1520 1519 1517 1516 1514 1514 1512 1515 1513 1513 1515 1516 1519 1520 1521 1519 1515 1513 1517 1513 1516 1516 1514 1515 1514 1512 1512 1511 1512 1512 1517 1520 1524 1529 1533
1533 1532 1530 1530 1528 1527 1526 1524 1523 1521 1520 1518 1517 1515 1515 1515 1516 1515 1514 1515 1516 1517 1521 1521 1520 1520 1514 1517 1518 1515 1517 1517 1515 1515 1514 1514 1511 1510 1512 1514 1517 1520 1524 1527 1532
1531 1530 1530 1528 1527 1525 1524 1523 1522 1520 1518 1517 1517 1515 1517 1515 1515 1515 1515 1516 1517 1519 1521 1522 1521 1522 1520 1519 1517 1519 1518 1516 1513 1513 1513 1512 1508 1511 1513 1515 1517 1520 1524 1527 1532
1530 1529 1528 1526 1525 1524 1523 1521 1519 1519 1517 1516 1516 1515 1515 1516 1513 1515 1515 1516 1517 1520 1522 1522 1523 1523 1521 1518 1521 1518 1515 1510 1510 1510 1508 1510 1504 1506 1511 1514 1516 1520 1524 1528 1531
1528 1527 1525 1524 1523 1522 1521 1519 1518 1517 1515 1515 1515 1515 1515 1512 1512 1515 1516 1516 1517 1519 1521 1521 1522 1523 1521 1521 1516 1512 1511 1510 1506 1508 1510 1508 1505 1507 1511 1512 1516 1521 1525 1529 1531
1526 1525 1524 1522 1520 1519 1519 1517 1516 1515 1514 1514 1515 1515 1512 1510 1513 1514 1516 1518 1518 1520 1521 1521 1523 1521 1520 1515 1513 1509 1510 1512 1510 1509 1509 1508 1507 1508 1510 1512 1515 1521 1526 1528 1530
1524 1523 1521 1520 1519 1518 1517 1515 1514 1513 1513 1513 1514 1517 1511 1511 1512 1513 1515 1517 1519 1521 1523 1523 1521 1515 1514 1512 1518 1511 1513 1510 1516 1508 1507 1504 1503 1503 1509 1510 1513 1519 1524 1527 1529
1522 1520 1519 1518 1517 1516 1516 1515 1516 1514 1510 1508 1509 1509 1510 1511 1511 1513 1515 1517 1519 1520 1516 1520 1516 1514 1511 1513 1514 1516 1517 1517 1509 1510 1510 1505 1505 1501 1506 1508 1511 1516 1521 1524 1528
1519 1518 1517 1516 1515 1515 1514 1516 1514 1515 1510 1506 1506 1507 1508 1509 1510 1513 1515 1517 1516 1514 1515 1519 1515 1510 1517 1518 1518 1516 1517 1513 1508 1511 1511 1503 1503 1497 1504 1506 1509 1512 1517 1522 1524
1517 1516 1515 1514 1513 1513 1513 1514 1513 1512 1510 1503 1503 1504 1507 1510 1507 1509 1513 1514 1512 1510 1513 1511 1511 1516 1516 1517 1518 1514 1515 1513 1515 1509 1504 1506 1502 1497 1498 1505 1508 1510 1512 1515 1518
1515 1513 1513 1512 1515 1512 1514 1513 1512 1511 1500 1496 1498 1499 1503 1506 1507 1507 1510 1513 1512 1509 1510 1510 1508 1515 1514 1514 1513 1513 1510 1513 1512 1512 1512 1504 1516 1495 1492 1496 1499 1504 1507 1511 1516
1513 1511 1511 1512 1511 1512 1512 1511 1510 1511 1506 1493 1496 1499 1500 1501 1499 1504 1508 1511 1507 1509 1513 1507 1510 1514 1516 1512 1511 1507 1512 1512 1511 1508 1509 1503 1512 1490 1491 1493 1493 1498 1503 1508 1513
1510 1509 1509 1509 1509 1509 1510 1510 1511 1507 1505 1491 1492 1494 1498 1498 1498 1503 1507 1510 1508 1508 1509 1503 1509 1508 1505 1508 1509 1511 1511 1510 1507 1503 1518 1501 1510 1494 1489 1491 1493 1498 1502 1505 1511
1508 1506 1506 1506 1509 1507 1509 1512 1506 1501 1489 1491 1487 1489 1487 1491 1495 1497 1501 1504 1504 1516 1512 1504 1503 1504 1507 1508 1509 1511 1511 1519 1520 1517 1516 1505 1510 1496 1486 1490 1495 1496 1501 1504 1509
1505 1503 1502 1503 1504 1506 1509 1508 1509 1488 1491 1490 1489 1489 1489 1485 1488 1493 1496 1501 1498 1498 1500 1507 1510 1499 1501 1502 1502 1506 1505 1512 1529 1518 1509 1508 1512 1492 1487 1491 1494 1498 1500 1503 1507
1502 1501 1500 1500 1502 1504 1509 1501 1489 1490 1491 1493 1490 1488 1487 1487 1487 1490 1490 1492 1492 1498 1504 1502 1504 1498 1500 1499 1501 1504 1514 1495 1505 1502 1513 1496 1490 1482 1483 1487 1489 1495 1499 1502 1506
1500 1500 1500 1498 1500 1504 1502 1491 1490 1496 1496 1493 1492 1489 1486 1485 1488 1487 1489 1485 1489 1492 1493 1493 1507 1494 1497 1499 1501 1501 1492 1510 1503 1523 1527 1499 1503 1494 1486 1482 1483 1495 1498 1502 1505
1498 1499 1498 1497 1500 1504 1493 1486 1493 1497 1496 1492 1490 1489 1487 1486 1481 1482 1485 1490 1488 1489 1492 1491 1499 1499 1497 1497 1494 1503 1500 1497 1491 1496 1506 1508 1493 1476 1481 1479 1483 1492 1497 1502 1504
1498 1495 1499 1499 1501 1494 1488 1491 1496 1493 1496 1493 1493 1492 1489 1490 1486 1484 1487 1483 1490 1490 1493 1491 1494 1501 1493 1485 1489 1488 1489 1489 1500 1507 1495 1500 1492 1471 1477 1481 1486 1490 1496 1501 1504
1500 1500 1500 1500 1491 1492 1495 1494 1493 1493 1492 1494 1492 1495 1495 1491 1495 1489 1486 1490 1491 1489 1488 1494 1494 1502 1499 1493 1491 1492 1488 1490 1490 1496 1498 1503 1488 1472 1477 1480 1486 1488 1496 1501 1504
1502 1494 1500 1501 1499 1493 1493 1491 1492 1496 1494 1495 1494 1498 1495 1494 1494 1492 1488 1489 1491 1490 1493 1493 1489 1491 1488 1489 1474 1490 1485 1485 1489 1495 1486 1486 1482 1474 1473 1476 1483 1487 1495 1499 1503
1502 1499 1499 1492 1495 1496 1497 1494 1490 1493 1494 1496 1496 1495 1494 1496 1494 1492 1491 1489 1491 1494 1493 1491 1494 1486 1481 1481 1481 1480 1479 1482 1489 1484 1490 1475 1480 1472 1473 1480 1482 1488 1496 1500 1501
1504 1502 1502 1499 1500 1496 1498 1493 1491 1492 1493 1493 1494 1495 1496 1496 1492 1489 1497 1492 1488 1491 1489 1492 1492 1487 1486 1480 1481 1484 1478 1477 1478 1477 1480 1477 1479 1475 1480 1482 1483 1485 1491 1495 1500
1506 1505 1505 1500 1498 1495 1490 1493 1495 1498 1499 1496 1499 1496 1496 1496 1504 1503 1503 1501 1500 1501 1495 1492 1486 1491 1490 1479 1481 1490 1476 1473 1473 1473 1476 1480 1472 1476 1479 1483 1485 1486 1488 1492 1494